World > North America > United States > Nebraska

Brainard, Nebraska Regional Weather

Lat: 41.18N, Lon: 97W
Wx Zone: NEZ050
Warning NWS WEATHER ALERT - (More Info. Click Here) Warning
Feedback

Brainard, NE Regional Weather

Expires:202002291300;;272647
ASUS43 KOAX 291210
RWRNE 

WEATHER ROUNDUP FOR NEBRASKA
NATIONAL WEATHER SERVICE OMAHA NE
600 AM CST SAT FEB 29 2020

NOTES: SATELLITE DATA IS BEING USED TO AUGMENT CLOUD COVER ABOVE
       12000 FEET.
       "FAIR" INDICATES FEW OR NO CLOUDS BELOW 12,000 FEET WITH NO
       SIGNIFICANT WEATHER AND/OR OBSTRUCTIONS TO VISIBILITY.

   

NEZ050>053-065>068-078-088>093-291300-
SOUTHEAST NEBRASKA
  
CITY           SKY/WX    TMP DP  RH WIND       PRES   REMARKS
LINCOLN        FAIR      24  21  88 S5        30.12F WCI  18          
6HR MIN TEMP:  23; 6HR MAX TEMP:  30;                                

OMAHA EPPLEY   FAIR      26  24  92 SE9       30.14S WCI  17          
6HR MIN TEMP:  24; 6HR MAX TEMP:  29;                                

BEATRICE       FAIR      28  27  93 SE6       30.12F WCI  22          
FALLS CITY     FAIR      24  20  84 SE6       30.17S WCI  17          
6HR MIN TEMP:  23; 6HR MAX TEMP:  31;                                

NEBRASKA CITY  FAIR      27  27 100 S8        30.15S WCI  19          
PLATTSMOUTH    FAIR      29  29  99 S10       30.14S WCI  20          
$$


SKY/WX - Weather  TMP - Temperature  DP - Dew Point  RH - Relative Humidity
WIND - Wind Direction/Speed PRES - Barometric Pressure VSB - Visibility
WCI - Wind Chill Index E13G22 Wind - East Wind 13 mph/Gusts of 22 mph
Brainard Weather Map
What is UTC time?